Location: Nena
(32.3271°N, 96.8558°W)
Time: 06:53:38
(UTC+00:00)

BlueWalker 3 - Visible Passes

Search period start: 08 December 2023 00:00
Search period end: 18 December 2023 00:00
Orbit: 490 x 503 km, 53.2° (Epoch: 07 December)

Date Brightness Start Highest point End Pass type
(mag) Time Alt. Az. Time Alt. Az. Time Alt. Az.
08 Dec 2.7 11:21:45 44° S 11:21:45 44° S 11:24:31 10° SSE visible
09 Dec 4.2 11:00:36 19° SSE 11:00:36 19° SSE 11:01:49 10° SSE visible
11 Dec 4.6 01:50:35 10° SW 01:51:31 17° SW 01:51:31 17° SW visible
12 Dec 3.2 01:27:50 10° SW 01:30:18 38° SW 01:30:18 38° SW visible
13 Dec 1.8 01:05:05 10° SW 01:08:56 89° SE 01:09:00 87° ENE visible
14 Dec 1.8 00:42:20 10° SW 00:46:11 87° SE 00:47:37 37° NE visible
15 Dec 1.9 00:19:34 10° SW 00:23:24 86° SE 00:26:10 18° NE visible
15 Dec 5.1 02:00:28 10° WNW 02:00:43 11° NW 02:00:43 11° NW visible
15 Dec 1.9 23:56:47 10° SW 00:00:38 84° SE 00:04:30 10° NE visible
16 Dec 4.6 01:37:37 10° WNW 01:39:10 13° NW 01:39:10 13° NW visible
17 Dec 4.5 01:14:47 10° WNW 01:16:38 13° NNW 01:17:32 12° NNW visible
